This is the latest recevied weather packets stored in our database for station/object K8JCL-13. If no packets are shown the sender has not sent any weather packets the latest 10 day(s).
| Time | Temp. | Humidity | Pressure | Rain* | Wind** | Luminosity | Snow |
|---|---|---|---|---|---|---|---|
| 1777730590 | 7.22° C | 58% | 1018.5 hPa | 0 mm | - | 408 W/m² | - |
| 1777730286 | 7.78° C | 59% | 1018.4 hPa | 0 mm | - | 395 W/m² | - |
| 1777729983 | 6.67° C | 60% | 1018.5 hPa | 0 mm | - | 381 W/m² | - |
| 1777729678 | 6.67° C | 62% | 1018.5 hPa | 0 mm | - | 365 W/m² | - |
| 1777729376 | 6.67° C | 61% | 1018.5 hPa | 0 mm | - | 353 W/m² | - |
| 1777729072 | 6.67° C | 63% | 1018.5 hPa | 0 mm | - | 339 W/m² | - |
| 1777728769 | 6.67° C | 66% | 1018.6 hPa | 0 mm | - | 324 W/m² | - |
| 1777728466 | 6.67° C | 64% | 1018.6 hPa | 0 mm | - | 309 W/m² | - |
| 1777728163 | 6.11° C | 66% | 1018.7 hPa | 0 mm | - | 296 W/m² | - |
| 1777727860 | 6.11° C | 67% | 1018.7 hPa | 0 mm | - | 277 W/m² | - |
| 1777727557 | 6.11° C | 69% | 1018.7 hPa | 0 mm | - | 264 W/m² | - |
| 1777727254 | 6.11° C | 69% | 1018.8 hPa | 0 mm | - | 250 W/m² | - |
| 1777726952 | 5.56° C | 69% | 1018.6 hPa | 0 mm | - | 252 W/m² | - |
| 1777726648 | 5.56° C | 70% | 1018.5 hPa | 0 mm | - | 226 W/m² | - |
| 1777726346 | 5° C | 72% | 1018.2 hPa | 0 mm | - | 210 W/m² | - |
| 1777726042 | 5.56° C | 72% | 1018.6 hPa | 0 mm | - | 195 W/m² | - |
| 1777725739 | 5° C | 71% | 1018.6 hPa | 0 mm | - | 184 W/m² | - |
| 1777725438 | 5° C | 73% | 1018.4 hPa | 0 mm | - | 172 W/m² | - |
| 1777725134 | 4.44° C | 73% | 1018.4 hPa | 0 mm | - | 115 W/m² | - |
| 1777724831 | 4.44° C | 75% | 1018.2 hPa | 0 mm | - | 135 W/m² | - |
| 1777724527 | 4.44° C | 75% | 1018.1 hPa | 0 mm | - | 52 W/m² | - |
| 1777724226 | 4.44° C | 76% | 1018.3 hPa | 0 mm | - | 73 W/m² | - |
| 1777723923 | 3.89° C | 77% | 1018.4 hPa | 0 mm | - | 92 W/m² | - |
| 1777723619 | 3.89° C | 78% | 1018.4 hPa | 0 mm | - | 37 W/m² | - |
| 1777723316 | 3.89° C | 79% | 1018.2 hPa | 0 mm | - | 34 W/m² | - |
* Rain latest hour (hover to see other rain measurements)
** Current wind speed in m/s (hover to see current wind gust speed)